Wind_Speed
5 5 4 4 3 3 3 2 2 2 2 2 2 2 2 1 1 1 1 2 2 2 3 3 3 4 4 4 4 4 4 4 5 5 5 5 5 5 6 6 6 6 7
7 6 5 5 5 4 4 3 3 2 3 3 2 2 2 2 1 1 1 2 2 2 3 3 4 4 4 4 4 5 5 5 5 5 5 6 6 6 6 7 7 7 8
8 8 7 7 6 6 5 5 4 4 4 4 3 2 2 2 2 2 2 2 2 3 3 4 4 4 4 4 4 4 5 5 5 5 6 6 6 7 7 7 8 8 8
9 9 8 8 8 7 6 6 6 5 5 4 4 3 3 2 3 2 3 3 3 3 3 4 4 4 4 4 4 3 4 5 5 5 6 6 7 7 7 8 8 8 9
8 9 9 9 8 8 8 8 7 6 6 6 5 4 4 4 3 3 4 4 4 4 4 4 4 4 4 4 4 4 4 5 5 5 6 6 7 7 8 8 8 9 9
9 9 9 10 9 9 9 8 8 8 7 7 7 6 5 5 5 4 4 4 4 4 4 5 5 4 4 5 5 5 5 5 5 6 7 7 8 8 8 9 9 10 10
9 10 10 10 10 10 9 9 8 8 8 7 7 7 7 7 7 6 6 6 5 5 5 5 5 5 5 5 5 6 6 6 7 7 8 9 9 9 9 10 10 10 10
9 10 10 10 10 10 10 10 9 8 8 8 8 8 9 8 8 8 7 7 7 6 6 6 6 7 6 6 7 7 8 8 9 9 9 10 10 11 11 11 11 12 12
8 10 11 11 11 11 11 11 10 10 10 9 9 9 10 9 9 9 9 9 8 8 8 8 8 9 8 8 9 10 10 10 10 11 11 12 12 12 12 13 13 13 13
9 10 12 12 13 13 13 13 12 12 12 11 11 11 11 11 11 11 11 11 11 10 10 10 10 11 11 11 11 11 12 12 13 13 13 14 14 14 14 15 15 16 16
11 11 12 13 14 14 15 14 14 13 13 13 13 13 12 13 13 13 13 13 13 13 13 13 13 13 13 13 14 14 14 15 16 16 16 16 16 17 17 17 18 19 19
11 12 13 14 14 15 15 15 15 15 15 15 15 15 15 14 15 15 15 15 15 16 16 16 16 16 16 16 16 16 17 18 18 18 19 19 19 19 20 20 21 22 22
12 13 14 14 15 16 16 17 17 17 17 16 17 17 17 17 17 17 17 17 17 17 17 18 18 18 18 19 19 19 19 20 20 20 21 21 21 21 22 23 23 24 24
13 13 14 15 16 16 17 17 18 18 18 18 18 19 19 19 20 20 20 19 20 19 20 20 21 21 21 21 22 22 21 21 21 22 23 23 23 24 24 25 26 27 27
13 14 14 15 16 17 17 18 18 19 19 20 20 20 20 20 21 21 22 22 22 22 21 22 22 23 23 23 23 23 24 24 24 24 25 26 26 27 28 28 29 30 31
13 14 15 16 17 17 18 19 19 20 21 21 21 21 21 22 22 23 24 24 23 23 23 24 24 24 25 25 25 26 26 26 26 26 27 28 29 30 31 31 32 33 34
13 14 15 16 18 19 20 20 20 21 22 22 22 23 23 23 24 24 24 25 25 25 26 26 26 26 26 27 27 27 28 28 29 29 29 31 32 33 33 34 35 36 37
13 14 15 16 18 19 20 20 20 21 22 23 23 24 25 25 25 25 24 24 25 26 26 27 28 29 29 29 29 30 30 31 31 32 33 34 35 35 37 37 38 39 40
12 13 15 16 17 19 20 20 21 22 22 23 25 25 25 25 24 25 25 26 26 26 26 27 28 30 30 30 30 31 32 32 33 35 36 37 38 39 40 41 42 43 43
13 13 14 16 17 19 20 22 22 23 23 24 24 24 24 24 25 25 26 27 27 27 27 28 28 29 31 32 32 33 34 34 36 37 38 39 40 41 42 43 44 45 47
13 14 15 16 17 18 20 21 22 22 23 23 24 25 24 24 25 26 27 28 27 27 28 28 29 31 32 33 34 35 36 37 38 39 40 41 42 43 44 45 46 48 49
13 14 15 15 17 18 19 21 21 22 22 23 24 24 24 25 26 27 27 27 27 27 28 29 30 31 32 33 34 36 37 38 39 40 41 42 44 45 46 47 49 51 51
14 14 15 16 16 17 19 20 20 21 22 23 23 24 24 25 26 26 27 28 28 28 30 31 32 32 33 34 35 37 38 40 40 42 43 44 46 48 49 51 51 52 53
16 16 16 16 17 18 18 19 21 22 22 23 23 24 25 26 27 28 28 29 30 31 32 33 33 33 34 35 37 38 40 41 42 43 45 46 48 50 51 51 52 53 54
18 18 18 18 18 19 18 18 20 21 22 23 24 25 26 26 27 28 29 30 31 33 33 33 33 34 35 37 38 39 41 42 44 45 46 48 49 49 50 51 52 53 54
20 20 20 20 20 20 20 20 21 21 23 23 24 25 25 26 27 28 29 30 32 33 33 33 34 35 36 38 39 41 43 44 45 46 47 48 49 49 50 51 52 53 52
Wind_Direction
214 215 219 210 199 192 191 191 202 210 205 202 192 191 193 197 200 254 277 292 300 302 303 308 311 308 302 295 285 277 277 281 287 285 289 294 295 296 294 293 294 298 300
220 222 226 217 212 206 203 206 213 213 198 195 198 204 208 218 233 262 287 298 302 304 307 310 313 317 310 298 286 276 277 282 283 287 291 294 294 295 294 292 292 295 296
219 221 219 216 213 211 210 211 215 213 210 210 214 212 213 226 238 260 293 311 316 319 317 315 313 316 317 313 297 281 280 282 282 283 288 292 293 292 294 293 293 295 295
219 220 217 218 218 217 215 216 218 217 218 218 222 225 230 242 251 264 284 299 307 314 319 322 314 308 307 312 312 299 291 286 283 284 289 292 290 290 291 293 295 296 296
227 221 221 223 225 225 222 222 223 224 221 224 229 233 242 249 252 261 270 281 294 300 305 310 312 305 303 303 306 304 299 292 288 289 292 294 293 291 290 291 293 295 295
234 229 226 225 227 227 228 228 230 227 229 231 236 244 250 251 252 259 267 274 282 290 296 301 306 306 304 301 297 296 296 293 290 292 294 294 291 291 290 290 292 294 293
236 228 224 223 222 223 227 227 230 230 232 236 239 245 253 254 253 256 268 273 278 282 287 295 301 299 295 296 292 291 292 295 292 290 293 294 291 289 287 288 289 292 291
230 223 220 222 222 222 224 226 231 233 236 241 244 249 253 255 256 259 265 266 268 274 279 284 291 294 293 288 286 286 288 292 296 292 291 290 289 286 284 283 285 287 288
230 225 223 225 225 227 229 231 234 237 240 242 249 253 254 256 260 261 262 262 265 268 272 276 281 285 285 285 285 284 286 289 290 292 293 289 286 286 284 284 285 285 286
232 230 229 228 229 230 232 236 240 243 245 246 250 254 255 260 263 264 263 264 266 267 268 272 275 278 280 282 283 282 283 283 285 288 291 290 286 284 283 283 284 283 284
231 233 233 235 235 236 236 237 242 247 250 252 254 255 259 262 264 265 266 266 266 267 268 268 270 273 275 277 278 278 280 283 284 286 287 287 287 286 284 284 284 284 284
234 237 237 238 238 239 239 240 243 247 251 253 256 259 260 263 265 266 266 267 267 268 269 270 271 271 274 276 277 278 279 281 282 283 284 285 286 286 286 286 286 285 285
239 241 241 239 239 239 241 244 246 247 251 254 256 259 261 263 265 266 266 267 268 269 270 271 272 273 273 275 277 278 280 281 282 282 283 284 284 284 285 286 286 286 285
248 246 244 241 240 242 245 248 249 250 252 256 257 258 261 263 265 266 266 266 267 268 270 272 273 273 272 273 276 278 280 281 282 283 283 284 283 283 283 285 285 285 285
250 248 246 245 244 247 249 252 252 253 256 258 260 262 264 264 265 266 266 266 267 268 269 271 272 273 273 275 276 277 278 279 281 282 281 282 282 282 284 285 285 285 285
252 249 248 246 247 249 250 251 254 256 259 261 262 264 265 266 266 267 266 267 269 269 269 272 272 272 273 275 277 277 278 279 281 280 281 282 283 283 284 285 285 285 285
257 256 252 250 250 253 255 256 258 259 261 263 264 266 266 267 268 268 267 267 268 269 268 269 270 271 273 275 276 277 277 279 279 280 280 282 283 283 284 285 286 285 286
262 262 260 258 255 256 259 260 262 263 264 265 266 267 267 268 269 268 267 268 270 270 268 268 269 271 273 274 274 275 278 279 279 279 281 283 283 283 284 285 286 286 287
273 271 265 265 262 261 261 261 263 267 268 268 269 268 268 269 269 268 268 268 269 270 271 271 271 273 274 274 275 277 278 279 280 281 283 284 284 284 285 286 286 287 287
280 276 272 271 268 266 266 265 265 268 271 272 272 272 270 270 271 270 269 269 269 271 272 272 273 275 275 275 277 277 278 281 282 282 283 283 284 286 287 287 287 287 288
283 278 277 277 274 271 270 270 269 269 271 271 271 272 271 270 271 274 272 271 271 273 274 275 274 276 276 277 276 278 280 282 284 285 284 285 287 287 287 287 287 289 290
288 285 283 283 282 276 275 273 271 270 272 273 273 271 272 273 273 274 273 272 273 275 276 279 279 279 278 277 277 279 282 282 285 287 287 288 288 288 288 288 289 290 291
292 291 288 286 285 282 276 273 274 275 274 275 276 276 276 278 275 275 275 274 274 275 278 281 280 279 279 280 281 283 283 284 285 286 287 288 289 288 288 289 290 292 292
291 291 289 287 285 285 283 277 277 277 277 277 278 279 280 281 281 280 279 277 277 279 280 281 282 282 283 284 284 285 286 286 288 289 289 289 289 289 290 291 292 292 293
289 288 288 289 288 288 287 284 282 280 279 279 279 280 281 282 283 281 282 281 281 283 283 283 284 285 286 287 287 288 288 289 290 290 291 291 291 291 292 292 293 293 293
289 289 289 289 288 288 287 287 287 284 283 283 283 283 284 285 287 285 283 283 283 283 283 283 284 284 287 289 290 290 290 291 292 292 292 292 293 292 292 293 294 294 295
Height
5893 5895 5896 5897 5898 5899 5900 5901 5901 5902 5903 5904 5904 5905 5905 5906 5906 5906 5907 5907 5907 5907 5907 5907 5907 5907 5907 5906 5907 5907 5907 5907 5907 5907 5907 5907 5907 5906 5906 5906 5906 5906 5906
5892 5894 5895 5896 5897 5899 5900 5901 5901 5902 5903 5904 5904 5905 5905 5906 5906 5906 5907 5907 5907 5907 5907 5907 5906 5906 5906 5906 5906 5906 5906 5906 5906 5906 5906 5906 5906 5906 5906 5905 5905 5905 5905
5891 5893 5894 5895 5897 5898 5899 5900 5901 5902 5903 5903 5904 5905 5905 5905 5906 5906 5906 5907 5907 5907 5907 5906 5906 5906 5905 5905 5905 5905 5905 5905 5905 5905 5905 5905 5905 5905 5905 5904 5904 5904 5904
5889 5891 5893 5894 5896 5897 5898 5900 5901 5901 5902 5903 5904 5904 5905 5905 5905 5906 5906 5906 5906 5906 5906 5906 5906 5905 5905 5905 5905 5904 5905 5905 5905 5905 5904 5904 5904 5904 5903 5903 5903 5903 5902
5888 5890 5891 5893 5895 5896 5897 5899 5900 5901 5901 5902 5903 5903 5904 5904 5905 5905 5905 5906 5906 5906 5906 5905 5905 5905 5904 5904 5904 5904 5904 5904 5904 5904 5903 5903 5903 5902 5902 5902 5902 5901 5901
5887 5888 5890 5892 5893 5895 5897 5898 5899 5900 5900 5901 5902 5903 5903 5904 5904 5904 5905 5905 5905 5905 5905 5905 5904 5904 5904 5904 5903 5903 5903 5903 5903 5902 5902 5902 5901 5901 5901 5900 5900 5899 5899
5886 5887 5889 5891 5892 5894 5895 5896 5897 5898 5899 5900 5901 5902 5902 5903 5903 5904 5904 5904 5904 5904 5904 5904 5903 5903 5903 5903 5902 5902 5902 5902 5901 5901 5901 5900 5900 5899 5899 5898 5898 5898 5897
5884 5886 5887 5889 5891 5892 5894 5895 5896 5897 5898 5899 5900 5901 5901 5902 5902 5902 5903 5903 5903 5902 5902 5902 5902 5902 5902 5901 5901 5901 5901 5900 5900 5899 5899 5898 5898 5897 5897 5896 5896 5895 5895
5883 5884 5886 5888 5889 5891 5892 5893 5895 5896 5897 5898 5898 5899 5900 5900 5901 5901 5901 5901 5901 5901 5901 5901 5901 5901 5900 5900 5900 5899 5899 5898 5898 5897 5896 5896 5895 5894 5894 5893 5893 5892 5892
5881 5883 5884 5886 5888 5889 5891 5892 5893 5894 5895 5896 5896 5897 5898 5898 5899 5899 5899 5899 5899 5899 5899 5899 5899 5899 5898 5898 5897 5897 5896 5896 5895 5894 5894 5893 5892 5891 5891 5890 5890 5889 5888
5880 5881 5882 5884 5885 5887 5888 5890 5891 5892 5892 5893 5894 5895 5895 5896 5896 5896 5896 5897 5897 5896 5896 5896 5896 5896 5896 5895 5895 5894 5894 5893 5892 5891 5890 5890 5889 5888 5887 5886 5886 5885 5884
5877 5879 5880 5881 5883 5884 5885 5887 5888 5889 5890 5891 5892 5892 5893 5893 5893 5893 5893 5893 5893 5893 5893 5893 5893 5892 5892 5892 5891 5891 5890 5889 5888 5887 5887 5886 5885 5884 5883 5882 5881 5880 5879
5875 5876 5877 5878 5880 5881 5883 5884 5885 5886 5887 5887 5888 5889 5889 5890 5890 5890 5890 5890 5890 5890 5889 5889 5889 5888 5888 5888 5887 5886 5886 5885 5884 5883 5882 5881 5880 5879 5878 5877 5876 5875 5874
5872 5873 5874 5875 5877 5878 5879 5880 5881 5882 5883 5884 5884 5885 5885 5886 5886 5886 5886 5886 5886 5886 5885 5885 5885 5884 5884 5883 5883 5882 5881 5880 5879 5879 5877 5876 5875 5874 5873 5872 5870 5869 5867
5869 5870 5871 5872 5874 5875 5876 5877 5878 5878 5879 5880 5880 5881 5881 5881 5881 5881 5881 5881 5882 5881 5881 5880 5880 5879 5878 5878 5877 5877 5876 5875 5874 5873 5872 5870 5869 5868 5867 5865 5864 5862 5860
5866 5867 5868 5869 5870 5871 5872 5873 5874 5874 5875 5875 5875 5876 5876 5876 5876 5876 5876 5876 5876 5876 5876 5875 5874 5874 5873 5872 5872 5871 5870 5869 5868 5867 5865 5864 5862 5861 5859 5858 5856 5854 5852
5863 5863 5864 5865 5866 5867 5868 5869 5869 5870 5870 5870 5870 5870 5870 5870 5870 5870 5870 5870 5870 5869 5869 5869 5868 5868 5867 5866 5865 5864 5863 5862 5861 5860 5858 5856 5855 5853 5851 5849 5847 5845 5842
5860 5860 5860 5861 5862 5863 5863 5864 5864 5864 5865 5865 5865 5865 5864 5864 5864 5864 5864 5863 5863 5863 5863 5862 5862 5861 5860 5859 5858 5857 5856 5855 5854 5852 5850 5848 5846 5844 5842 5840 5837 5835 5832
5856 5856 5857 5858 5858 5858 5859 5859 5859 5859 5859 5859 5859 5858 5858 5858 5858 5858 5858 5857 5857 5856 5856 5856 5855 5854 5853 5852 5851 5850 5848 5847 5845 5844 5842 5839 5837 5834 5832 5829 5827 5824 5821
5853 5853 5854 5854 5853 5853 5853 5853 5854 5854 5854 5853 5853 5852 5852 5852 5852 5851 5851 5851 5850 5850 5849 5848 5848 5847 5845 5844 5843 5842 5840 5838 5836 5834 5832 5829 5827 5824 5821 5819 5816 5813 5810
5850 5850 5850 5849 5849 5849 5848 5848 5848 5848 5848 5848 5847 5847 5846 5846 5845 5845 5845 5844 5843 5843 5842 5841 5840 5839 5837 5836 5835 5833 5831 5829 5827 5824 5822 5819 5816 5813 5810 5807 5804 5801 5797
5847 5846 5846 5845 5845 5844 5844 5843 5843 5843 5842 5842 5841 5840 5840 5839 5839 5838 5837 5837 5836 5835 5834 5833 5832 5831 5829 5828 5826 5824 5822 5820 5817 5815 5812 5809 5805 5802 5798 5795 5791 5788 5783
5843 5843 5842 5841 5840 5839 5839 5838 5838 5837 5836 5836 5835 5835 5834 5833 5832 5831 5830 5829 5829 5828 5827 5826 5824 5823 5821 5819 5817 5815 5813 5810 5807 5804 5801 5797 5794 5790 5786 5782 5778 5774 5769
5839 5838 5838 5837 5836 5835 5834 5833 5832 5831 5831 5830 5830 5829 5828 5827 5826 5825 5824 5822 5822 5821 5819 5818 5816 5814 5812 5810 5808 5805 5802 5800 5796 5793 5790 5786 5781 5777 5773 5769 5764 5759 5755
5835 5834 5833 5832 5831 5830 5829 5828 5827 5826 5825 5824 5823 5823 5821 5820 5819 5818 5817 5815 5814 5812 5811 5809 5807 5805 5802 5800 5797 5795 5792 5789 5785 5782 5777 5773 5769 5764 5760 5755 5750 5745 5740
5830 5829 5828 5827 5826 5825 5824 5823 5822 5821 5820 5818 5817 5816 5815 5813 5811 5810 5808 5807 5805 5803 5802 5800 5798 5795 5792 5790 5787 5784 5781 5777 5773 5770 5765 5761 5756 5751 5747 5741 5736 5731 5725